Temp
-5 -5 -5 -5 -5 -5 -5 -5 -5 -5 -6 -6 -6 -7 -7 -7 -7 -7 -7 -7 -7 -7 -7 -7 -7 -7 -8 -7 -6 -6 -6 -6 -6 -6 -6 -6 -6 -7 -6 -7 -6 -7 -7 -7 -8 -8 -9 -9 -9
-5 -5 -5 -6 -6 -6 -6 -5 -5 -6 -6 -6 -6 -7 -6 -7 -7 -7 -7 -8 -8 -7 -8 -7 -7 -7 -7 -7 -7 -6 -6 -7 -6 -6 -6 -6 -7 -7 -6 -6 -6 -7 -7 -8 -8 -8 -8 -8 -8
-6 -6 -6 -6 -5 -5 -5 -5 -5 -6 -6 -6 -6 -6 -6 -7 -7 -7 -8 -8 -8 -8 -8 -7 -7 -7 -7 -7 -7 -6 -7 -6 -6 -6 -6 -6 -7 -6 -6 -7 -7 -7 -7 -8 -8 -8 -8 -8 -8
-6 -6 -5 -5 -5 -4 -5 -6 -5 -6 -6 -6 -6 -6 -6 -7 -7 -7 -8 -8 -8 -8 -8 -7 -7 -7 -7 -7 -7 -7 -6 -6 -6 -6 -6 -6 -7 -6 -6 -6 -7 -7 -7 -7 -7 -7 -7 -8 -8
-6 -6 -5 -5 -4 -5 -5 -5 -5 -6 -6 -6 -6 -6 -6 -7 -6 -7 -8 -8 -8 -8 -7 -8 -7 -7 -7 -7 -7 -7 -6 -6 -6 -6 -6 -6 -6 -6 -6 -6 -6 -7 -7 -7 -7 -7 -7 -8 -7
-6 -6 -6 -6 -5 -5 -5 -6 -6 -6 -6 -6 -6 -6 -6 -6 -6 -7 -8 -7 -8 -8 -7 -7 -7 -7 -7 -7 -7 -6 -6 -6 -6 -7 -7 -6 -7 -6 -6 -6 -6 -7 -7 -7 -7 -7 -7 -8 -7
-5 -5 -5 -5 -5 -5 -5 -5 -6 -6 -6 -6 -6 -6 -6 -6 -6 -6 -7 -7 -7 -8 -7 -7 -7 -7 -7 -7 -6 -6 -6 -6 -6 -6 -6 -6 -7 -6 -6 -6 -6 -6 -7 -7 -7 -7 -8 -8 -8
-5 -5 -5 -5 -5 -5 -5 -5 -6 -6 -6 -7 -6 -6 -6 -6 -6 -6 -7 -7 -7 -7 -7 -7 -7 -7 -7 -7 -7 -6 -6 -6 -6 -6 -6 -6 -6 -6 -6 -6 -6 -6 -7 -7 -7 -7 -7 -7 -8
-5 -5 -5 -6 -6 -6 -5 -6 -6 -6 -6 -6 -6 -6 -6 -6 -6 -6 -7 -7 -7 -7 -7 -7 -7 -7 -7 -7 -7 -7 -7 -7 -6 -6 -6 -6 -6 -6 -6 -6 -6 -7 -7 -7 -7 -7 -7 -7 -7
-5 -5 -5 -6 -6 -6 -5 -6 -6 -6 -6 -6 -6 -6 -6 -6 -6 -6 -7 -7 -7 -7 -7 -7 -7 -7 -7 -7 -7 -7 -7 -7 -6 -6 -6 -6 -6 -6 -6 -6 -6 -7 -7 -7 -7 -7 -7 -7 -8
-5 -5 -5 -6 -6 -6 -5 -6 -6 -6 -6 -6 -6 -6 -6 -5 -6 -6 -6 -6 -6 -6 -7 -7 -7 -7 -7 -7 -7 -7 -7 -6 -6 -5 -5 -6 -6 -7 -6 -6 -7 -7 -7 -7 -7 -7 -7 -8 -8
-5 -5 -6 -5 -6 -5 -5 -6 -6 -6 -6 -6 -6 -6 -6 -5 -5 -6 -6 -6 -6 -6 -7 -6 -6 -7 -7 -6 -6 -6 -7 -7 -7 -6 -6 -6 -7 -7 -6 -7 -7 -7 -6 -6 -6 -7 -7 -7 -8
-5 -5 -6 -6 -5 -6 -6 -6 -5 -5 -6 -6 -6 -6 -6 -5 -5 -6 -6 -6 -6 -6 -6 -6 -7 -6 -7 -6 -6 -6 -6 -6 -6 -6 -6 -7 -7 -6 -7 -7 -7 -6 -6 -7 -6 -7 -7 -7 -7
-6 -6 -6 -6 -6 -5 -6 -6 -6 -6 -6 -6 -6 -6 -6 -5 -5 -6 -6 -6 -6 -6 -6 -6 -7 -7 -7 -6 -6 -5 -6 -6 -6 -6 -6 -6 -7 -7 -7 -7 -7 -6 -7 -7 -7 -7 -7 -7 -7
-6 -6 -6 -6 -6 -6 -6 -6 -6 -6 -5 -5 -6 -6 -6 -6 -6 -6 -6 -6 -6 -6 -6 -6 -6 -7 -7 -7 -6 -6 -6 -6 -6 -6 -6 -6 -6 -7 -7 -7 -6 -7 -7 -7 -7 -7 -7 -6 -7
-6 -6 -6 -6 -7 -7 -7 -6 -6 -6 -6 -5 -6 -6 -6 -6 -6 -5 -5 -5 -6 -6 -6 -6 -6 -6 -7 -7 -7 -7 -6 -6 -6 -5 -6 -6 -6 -7 -7 -7 -7 -7 -7 -7 -7 -7 -6 -7 -7
-7 -7 -7 -7 -7 -7 -7 -6 -6 -6 -6 -6 -6 -6 -6 -6 -6 -6 -5 -5 -5 -6 -6 -6 -6 -6 -7 -7 -7 -7 -6 -6 -6 -6 -6 -6 -6 -6 -6 -7 -6 -7 -7 -7 -7 -7 -6 -7 -7
-7 -8 -8 -8 -8 -8 -7 -7 -7 -7 -6 -6 -6 -6 -6 -6 -6 -6 -6 -6 -5 -6 -6 -6 -6 -6 -7 -7 -7 -7 -7 -7 -6 -6 -6 -6 -6 -6 -6 -6 -6 -7 -7 -7 -8 -7 -7 -7 -7
-8 -8 -8 -7 -8 -8 -8 -7 -8 -7 -7 -7 -7 -6 -6 -6 -6 -6 -6 -6 -6 -6 -6 -6 -6 -6 -6 -7 -7 -7 -7 -6 -6 -6 -6 -6 -6 -6 -6 -6 -7 -7 -7 -8 -8 -8 -7 -7 -7
-9 -9 -8 -8 -8 -8 -8 -7 -8 -8 -7 -7 -7 -7 -6 -6 -6 -6 -5 -6 -6 -6 -6 -6 -6 -6 -6 -6 -7 -7 -7 -6 -6 -6 -7 -6 -6 -6 -7 -7 -7 -7 -7 -8 -8 -7 -7 -7 -8
-10 -9 -9 -9 -8 -8 -8 -8 -7 -8 -8 -7 -7 -6 -7 -7 -7 -6 -6 -5 -6 -6 -6 -6 -6 -6 -7 -7 -6 -6 -6 -7 -7 -7 -7 -7 -7 -7 -6 -7 -7 -7 -7 -7 -7 -8 -7 -7 -7
-9 -9 -9 -9 -9 -8 -9 -8 -8 -8 -8 -8 -7 -7 -7 -6 -6 -6 -6 -6 -6 -6 -6 -6 -6 -6 -7 -7 -6 -6 -6 -7 -7 -7 -7 -7 -7 -7 -6 -7 -7 -7 -7 -7 -7 -8 -8 -7 -7
-10 -9 -9 -9 -8 -9 -8 -9 -8 -8 -8 -8 -7 -7 -7 -7 -6 -6 -6 -7 -7 -7 -6 -6 -6 -6 -7 -7 -6 -7 -6 -7 -7 -7 -7 -7 -7 -7 -7 -7 -7 -7 -7 -7 -7 -7 -8 -8 -8
-10 -10 -9 -9 -9 -10 -10 -8 -8 -8 -8 -7 -7 -6 -6 -6 -6 -6 -7 -7 -7 -7 -7 -6 -6 -6 -6 -6 -6 -7 -7 -7 -7 -7 -7 -7 -7 -7 -7 -7 -7 -7 -7 -7 -7 -7 -7 -7 -8
-10 -10 -10 -10 -9 -10 -9 -9 -8 -8 -8 -7 -7 -7 -7 -7 -6 -7 -6 -6 -6 -7 -7 -7 -6 -6 -6 -7 -6 -6 -7 -7 -7 -7 -7 -7 -7 -7 -7 -7 -7 -7 -7 -7 -7 -7 -7 -7 -7
-11 -10 -10 -9 -9 -9 -9 -9 -8 -8 -8 -7 -7 -7 -6 -6 -6 -6 -6 -6 -7 -7 -7 -7 -7 -7 -7 -7 -7 -7 -7 -7 -7 -7 -7 -7 -7 -7 -7 -6 -6 -7 -7 -6 -7 -7 -6 -6 -7
-10 -10 -9 -9 -9 -9 -9 -9 -9 -8 -8 -8 -8 -7 -7 -7 -7 -7 -6 -6 -6 -7 -7 -7 -7 -8 -8 -7 -7 -7 -7 -7 -7 -7 -7 -7 -7 -7 -7 -6 -6 -7 -7 -6 -7 -7 -6 -7 -7
-10 -10 -10 -9 -10 -9 -9 -10 -9 -9 -8 -8 -8 -8 -8 -7 -7 -7 -7 -7 -7 -7 -7 -7 -7 -8 -8 -8 -7 -7 -7 -7 -7 -7 -7 -7 -7 -7 -7 -7 -6 -6 -7 -7 -7 -7 -6 -7 -7
-10 -10 -10 -10 -9 -9 -9 -10 -10 -10 -9 -9 -9 -8 -9 -8 -8 -7 -8 -8 -8 -8 -8 -8 -8 -8 -8 -7 -7 -8 -7 -7 -8 -8 -7 -7 -7 -7 -7 -7 -7 -7 -6 -6 -7 -7 -7 -7 -7
-10 -10 -10 -10 -10 -10 -9 -9 -10 -10 -10 -10 -10 -10 -9 -9 -9 -8 -8 -8 -8 -8 -7 -7 -8 -8 -7 -8 -8 -8 -7 -7 -7 -8 -8 -7 -7 -7 -7 -7 -7 -7 -6 -6 -6 -7 -7 -7 -7
Height
5897 5897 5897 5898 5901 5899 5898 5899 5899 5898 5898 5896 5895 5894 5893 5892 5894 5897 5895 5896 5897 5898 5899 5901 5903 5902 5904 5906 5906 5907 5907 5909 5911 5912 5913 5913 5912 5912 5911 5910 5909 5909 5908 5908 5908 5906 5904 5903 5900
5897 5897 5898 5896 5897 5896 5897 5898 5898 5897 5897 5896 5894 5892 5892 5892 5892 5894 5894 5895 5895 5897 5898 5900 5902 5902 5903 5905 5906 5907 5908 5909 5911 5911 5913 5912 5912 5912 5911 5910 5909 5908 5907 5906 5905 5904 5903 5902 5899
5897 5897 5898 5897 5894 5892 5892 5896 5897 5897 5896 5895 5893 5892 5892 5891 5891 5892 5894 5894 5895 5896 5897 5900 5901 5903 5904 5905 5907 5907 5908 5910 5911 5911 5912 5912 5912 5911 5911 5910 5910 5908 5906 5904 5903 5903 5902 5901 5900
5897 5898 5898 5898 5895 5889 5891 5894 5895 5894 5894 5894 5892 5892 5892 5890 5889 5892 5893 5894 5895 5896 5897 5899 5902 5904 5905 5906 5907 5907 5909 5909 5909 5910 5911 5911 5911 5910 5910 5910 5909 5908 5906 5905 5903 5902 5901 5899 5900
5897 5897 5897 5898 5897 5896 5893 5894 5894 5894 5894 5893 5892 5891 5891 5889 5888 5892 5893 5892 5894 5896 5897 5899 5900 5901 5903 5906 5907 5907 5909 5910 5910 5910 5911 5911 5911 5911 5910 5910 5910 5909 5908 5906 5904 5902 5901 5900 5900
5897 5897 5897 5897 5897 5895 5894 5894 5893 5893 5892 5892 5891 5891 5891 5888 5888 5891 5892 5893 5893 5895 5897 5900 5900 5900 5903 5905 5905 5907 5909 5910 5910 5910 5909 5910 5910 5911 5910 5910 5909 5909 5908 5907 5906 5903 5902 5901 5899
5896 5896 5896 5896 5896 5894 5893 5892 5892 5892 5892 5890 5890 5891 5890 5888 5888 5890 5891 5892 5893 5895 5897 5899 5901 5901 5903 5904 5905 5907 5908 5908 5909 5908 5909 5908 5910 5911 5911 5911 5910 5910 5908 5907 5907 5905 5904 5903 5900
5895 5896 5895 5895 5894 5893 5891 5891 5891 5891 5890 5889 5890 5890 5890 5888 5887 5889 5890 5892 5893 5894 5897 5899 5901 5902 5903 5904 5906 5906 5907 5908 5907 5908 5909 5909 5910 5910 5911 5911 5911 5910 5908 5907 5906 5905 5904 5903 5902
5895 5895 5894 5893 5893 5893 5892 5891 5891 5890 5889 5888 5888 5889 5888 5887 5887 5889 5891 5892 5893 5893 5896 5898 5900 5903 5904 5904 5905 5906 5907 5907 5907 5907 5908 5909 5910 5910 5910 5911 5911 5912 5911 5909 5907 5907 5904 5903 5901
5893 5894 5892 5892 5892 5892 5891 5890 5890 5890 5889 5887 5886 5888 5888 5887 5886 5889 5891 5892 5893 5894 5895 5897 5899 5902 5903 5904 5905 5907 5907 5907 5907 5905 5907 5908 5909 5910 5910 5911 5912 5911 5911 5910 5909 5907 5905 5904 5902
5893 5893 5891 5891 5891 5889 5888 5888 5889 5888 5888 5886 5885 5887 5888 5888 5887 5889 5891 5891 5893 5893 5894 5896 5899 5901 5902 5903 5904 5906 5906 5907 5907 5907 5907 5908 5909 5910 5910 5911 5912 5912 5911 5910 5909 5908 5906 5905 5903
5891 5891 5890 5889 5889 5887 5886 5887 5888 5888 5887 5886 5885 5886 5888 5888 5887 5889 5891 5891 5892 5894 5895 5896 5898 5900 5901 5902 5904 5905 5905 5906 5907 5908 5907 5908 5909 5911 5911 5912 5913 5912 5912 5909 5908 5908 5907 5905 5904
5889 5889 5888 5888 5887 5887 5886 5887 5887 5886 5886 5885 5885 5886 5887 5888 5888 5888 5890 5891 5891 5893 5894 5896 5897 5898 5900 5901 5903 5903 5904 5905 5907 5908 5908 5908 5911 5911 5912 5914 5914 5913 5912 5910 5910 5908 5905 5904 5903
5886 5887 5887 5886 5886 5885 5884 5885 5887 5887 5886 5886 5887 5887 5887 5888 5888 5888 5889 5889 5890 5892 5894 5895 5897 5898 5899 5900 5901 5902 5902 5904 5907 5908 5908 5909 5911 5912 5913 5914 5914 5914 5913 5912 5911 5909 5907 5906 5905
5884 5884 5884 5885 5884 5884 5883 5885 5884 5885 5885 5886 5887 5887 5886 5887 5888 5889 5889 5889 5889 5890 5893 5894 5897 5898 5899 5899 5900 5900 5902 5905 5908 5909 5910 5911 5912 5912 5913 5913 5914 5915 5915 5913 5912 5911 5909 5908 5906
5881 5883 5883 5884 5883 5883 5884 5884 5883 5883 5884 5885 5886 5886 5886 5886 5887 5888 5889 5888 5889 5889 5891 5893 5896 5898 5899 5899 5901 5901 5902 5905 5909 5909 5911 5912 5913 5913 5913 5913 5914 5914 5915 5913 5913 5912 5911 5909 5908
5880 5881 5882 5883 5882 5882 5883 5881 5881 5880 5881 5883 5885 5885 5886 5885 5885 5885 5887 5887 5888 5889 5890 5893 5895 5898 5899 5900 5902 5903 5904 5907 5908 5909 5910 5912 5914 5915 5914 5913 5913 5913 5915 5914 5912 5911 5910 5910 5909
5879 5880 5881 5880 5881 5880 5881 5881 5880 5880 5880 5881 5883 5884 5884 5884 5884 5884 5884 5886 5886 5888 5890 5892 5895 5897 5898 5900 5903 5904 5905 5906 5908 5910 5911 5912 5914 5914 5914 5914 5912 5912 5914 5914 5912 5911 5911 5912 5911
5877 5878 5879 5880 5880 5880 5881 5881 5880 5879 5878 5879 5881 5882 5882 5882 5882 5883 5883 5884 5885 5886 5888 5891 5894 5895 5898 5900 5902 5904 5905 5906 5908 5910 5911 5912 5913 5913 5914 5914 5913 5913 5914 5914 5913 5912 5913 5913 5912
5875 5877 5878 5879 5878 5879 5879 5880 5880 5879 5878 5878 5878 5880 5880 5881 5882 5882 5881 5883 5883 5885 5886 5889 5893 5894 5896 5899 5901 5903 5905 5907 5908 5910 5911 5911 5912 5913 5913 5913 5913 5913 5913 5913 5913 5913 5914 5913 5912
5874 5874 5876 5878 5878 5878 5879 5879 5879 5880 5879 5879 5877 5877 5878 5879 5880 5881 5880 5881 5881 5882 5884 5887 5891 5893 5894 5896 5899 5901 5903 5905 5907 5908 5909 5911 5911 5912 5913 5912 5911 5912 5912 5913 5914 5914 5914 5915 5913
5872 5873 5875 5876 5878 5879 5879 5879 5879 5878 5879 5878 5878 5878 5877 5877 5879 5880 5880 5879 5880 5880 5882 5885 5888 5890 5892 5893 5895 5898 5900 5903 5904 5906 5907 5909 5909 5911 5912 5912 5912 5912 5912 5912 5913 5914 5914 5913 5914
5873 5874 5875 5876 5878 5878 5878 5879 5878 5877 5877 5877 5877 5877 5877 5877 5878 5878 5879 5879 5879 5879 5881 5883 5886 5888 5889 5890 5891 5895 5897 5900 5903 5904 5905 5907 5908 5909 5910 5911 5913 5912 5912 5912 5912 5912 5914 5914 5914
5874 5875 5876 5877 5878 5878 5877 5878 5878 5877 5876 5876 5876 5877 5878 5878 5877 5878 5878 5878 5878 5879 5881 5883 5885 5886 5888 5890 5890 5892 5894 5897 5900 5903 5905 5907 5907 5908 5909 5909 5910 5911 5912 5911 5911 5912 5914 5914 5915
5872 5874 5875 5877 5878 5878 5877 5878 5876 5876 5875 5874 5876 5876 5877 5878 5877 5877 5877 5877 5879 5880 5881 5882 5884 5884 5886 5888 5889 5891 5893 5896 5898 5900 5902 5904 5905 5906 5907 5908 5908 5909 5910 5911 5911 5912 5914 5914 5914
5870 5871 5873 5874 5876 5877 5876 5876 5876 5876 5875 5875 5874 5875 5876 5876 5877 5877 5877 5876 5878 5879 5880 5881 5882 5884 5885 5886 5888 5890 5891 5893 5896 5898 5900 5901 5903 5905 5905 5906 5907 5907 5908 5909 5909 5910 5911 5912 5913
5868 5869 5871 5871 5873 5875 5876 5875 5874 5875 5875 5876 5875 5875 5875 5875 5875 5876 5876 5876 5877 5876 5878 5880 5881 5882 5883 5884 5886 5888 5889 5891 5893 5895 5897 5899 5900 5903 5904 5904 5905 5906 5907 5907 5907 5908 5909 5911 5912
5865 5867 5867 5868 5871 5873 5873 5874 5874 5875 5875 5876 5875 5874 5874 5874 5874 5874 5875 5875 5875 5876 5877 5878 5880 5881 5882 5883 5884 5886 5887 5889 5891 5894 5896 5898 5899 5900 5901 5902 5902 5904 5905 5905 5905 5906 5907 5908 5910
5863 5863 5864 5866 5868 5870 5871 5873 5873 5873 5873 5874 5875 5874 5874 5873 5873 5873 5873 5874 5875 5875 5875 5876 5877 5879 5879 5880 5882 5883 5885 5887 5889 5890 5892 5894 5896 5897 5898 5899 5899 5900 5902 5901 5903 5904 5905 5906 5907
5861 5862 5863 5863 5866 5866 5868 5872 5871 5871 5873 5873 5874 5874 5874 5874 5873 5873 5873 5873 5874 5874 5874 5875 5874 5875 5876 5877 5879 5879 5881 5882 5884 5885 5887 5889 5891 5894 5895 5896 5897 5898 5899 5899 5899 5901 5902 5903 5904
Wind_Speed
2 2 2 3 5 6 8 9 7 8 7 9 5 3 5 6 7 6 11 12 10 7 8 3 4 20 16 11 8 6 3 2 4 2 7 6 6 6 8 7 8 9 8 7 9 10 9 9 12
2 1 2 6 10 7 10 5 4 5 5 5 5 2 3 5 7 7 9 12 11 10 9 6 4 12 15 13 9 7 5 2 2 1 4 5 4 7 7 8 8 9 8 10 12 11 11 9 14
3 1 4 13 12 16 8 8 7 5 5 6 5 4 6 6 8 6 7 11 9 10 8 8 6 4 11 12 8 6 4 3 3 1 2 2 4 8 7 7 8 9 10 13 13 12 12 12 12
0 5 6 9 15 9 18 6 2 4 7 8 7 6 7 8 6 6 9 9 7 8 9 5 7 6 10 12 7 6 3 1 2 2 0 3 7 7 7 8 8 9 13 14 15 14 14 12 11
2 5 6 11 9 7 9 6 3 4 4 6 6 6 7 7 5 5 8 10 11 8 8 7 7 11 13 12 9 5 1 3 1 1 2 1 4 7 6 7 9 11 13 14 16 16 13 13 12
7 7 9 10 7 8 11 9 6 4 4 7 5 6 7 6 6 5 9 9 10 10 10 10 7 4 12 10 6 3 0 2 4 4 3 6 3 5 6 7 9 11 11 13 16 15 17 11 13
11 10 10 7 7 6 5 10 10 7 3 4 5 8 7 7 5 6 11 10 10 10 9 9 9 8 8 6 4 2 2 5 4 9 3 3 2 6 6 8 10 11 13 11 13 19 16 9 12
6 6 5 3 5 11 6 9 14 7 4 4 6 9 7 7 6 8 11 11 10 10 11 9 12 10 8 6 4 3 3 4 3 3 5 6 6 7 6 9 11 14 14 13 8 15 14 13 6
5 4 7 7 7 8 3 7 9 9 7 9 7 7 8 8 8 8 10 9 12 12 11 11 12 11 9 8 6 4 4 6 7 3 5 6 6 8 7 8 12 13 17 16 12 12 15 11 10
6 6 5 7 7 9 10 8 6 7 12 10 8 7 8 10 11 11 11 8 11 10 11 12 12 11 11 9 8 5 6 5 3 8 12 7 7 7 6 9 13 12 12 11 12 14 14 12 8
5 5 6 10 8 7 9 13 11 9 8 11 9 7 8 10 12 11 10 9 10 11 10 12 10 11 12 9 8 7 6 6 2 10 11 9 9 6 6 11 14 14 13 12 7 9 12 9 8
4 3 3 9 8 7 4 11 9 8 9 11 8 7 9 10 10 8 9 10 8 9 11 11 10 12 11 8 9 7 6 6 6 10 10 9 8 5 6 9 10 10 11 21 18 14 11 7 7
5 3 3 8 8 4 3 7 6 8 11 10 9 8 8 9 9 10 10 10 9 10 9 11 12 11 10 9 8 8 8 8 15 12 11 9 7 4 4 8 8 10 12 14 17 17 16 7 10
7 6 4 5 5 4 4 12 6 6 8 8 9 10 9 10 9 9 9 7 8 10 10 11 11 10 11 10 11 12 10 13 16 12 11 8 7 3 5 7 9 10 10 13 14 18 13 9 9
9 9 7 4 4 2 1 2 7 7 5 9 9 11 10 9 9 8 8 8 7 8 11 11 11 8 10 6 7 11 15 17 12 11 9 8 7 5 6 6 6 10 9 11 10 12 14 13 8
10 11 9 8 4 2 2 5 5 9 5 7 9 13 12 11 10 7 6 8 7 8 10 13 12 10 9 9 14 15 15 13 12 9 8 7 5 4 4 5 3 7 9 10 11 11 14 11 11
11 9 10 9 5 4 4 3 5 8 9 8 9 11 10 11 8 5 4 8 9 8 9 12 13 11 11 13 15 14 13 12 10 10 7 6 5 5 2 2 3 6 8 9 11 12 15 11 8
10 13 8 9 7 4 4 3 4 7 7 7 11 10 10 10 9 7 5 7 11 11 10 13 14 12 11 12 12 14 12 10 11 8 7 6 5 5 3 3 0 4 5 9 9 10 10 8 5
12 12 12 10 8 7 6 6 11 8 6 6 7 9 9 8 11 9 7 8 10 13 12 13 15 14 12 10 11 13 15 11 12 10 9 8 6 5 5 6 3 4 4 7 6 9 9 7 3
9 13 11 11 12 11 8 9 12 14 12 12 11 11 10 9 12 12 8 8 6 11 15 13 12 14 14 12 11 12 17 12 15 14 11 8 7 6 5 5 2 3 3 4 3 6 10 2 2
8 14 16 15 12 9 10 7 9 11 14 12 13 13 8 11 11 14 12 9 6 8 14 15 16 15 13 15 13 12 11 18 18 15 12 10 9 7 4 4 2 4 4 5 4 3 5 3 1
18 15 16 16 16 9 8 5 3 8 10 12 12 14 13 15 10 10 10 7 7 6 10 12 15 16 16 16 17 15 14 14 13 14 15 14 11 10 7 4 4 6 5 6 3 5 6 4 3
10 10 12 12 15 14 9 4 7 7 12 11 13 9 13 10 12 12 9 6 7 6 8 9 12 12 14 14 15 15 17 17 14 14 10 13 13 14 10 8 7 5 5 5 2 2 4 4 5
10 12 9 5 5 6 6 5 5 6 12 15 14 11 9 9 8 9 10 9 7 5 8 8 9 12 13 11 11 12 13 19 18 15 12 14 14 12 11 10 8 5 4 5 4 5 3 7 7
10 14 13 7 6 9 6 2 9 7 1 9 15 14 12 12 11 8 9 10 8 6 5 7 10 10 11 12 12 11 12 15 17 16 15 15 15 14 15 13 10 8 7 6 6 6 5 6 8
13 16 17 13 12 9 7 5 8 8 4 6 6 4 11 12 12 11 7 6 10 7 7 6 9 11 10 9 9 9 11 14 15 17 17 19 15 15 18 15 12 10 9 9 9 9 10 7 7
14 15 15 15 14 10 4 2 3 6 4 1 2 1 3 6 9 8 10 9 9 8 7 8 6 8 10 11 12 10 9 11 16 16 18 18 17 18 18 16 13 12 12 11 10 9 11 9 9
13 16 16 15 13 11 7 2 7 6 7 1 4 5 5 3 1 3 4 7 9 9 8 8 9 7 7 10 11 12 12 13 15 16 17 19 19 19 19 19 15 15 15 14 12 12 13 13 12
3 8 14 14 14 14 11 6 1 2 7 6 4 2 11 7 3 4 6 6 7 7 9 10 11 11 10 11 14 14 15 16 16 20 21 21 21 21 20 19 19 18 16 17 16 15 16 15 15
10 8 12 13 12 15 14 9 11 4 4 4 6 4 5 6 3 5 6 7 7 6 8 10 12 15 17 17 18 19 18 18 20 21 22 23 23 22 23 21 21 21 21 19 19 17 17 18 19
Wind_Direction
179 193 19 4 311 287 270 282 262 325 346 334 289 196 155 171 189 189 193 192 213 183 232 218 201 160 144 149 157 163 183 140 108 99 74 69 64 59 47 39 33 36 33 29 37 18 10 24 7
194 162 25 344 334 307 279 248 229 306 325 323 313 247 199 188 176 180 217 197 195 203 218 216 217 183 145 158 172 180 206 184 179 155 77 64 57 66 51 44 43 31 24 32 28 16 4 9 11
176 51 7 346 333 311 258 191 228 278 299 311 305 268 251 189 175 196 208 207 202 197 219 212 211 210 165 163 171 184 219 225 214 170 84 56 95 79 59 53 47 34 23 24 23 15 27 13 25
226 356 351 350 355 344 141 159 259 292 321 309 284 251 235 184 154 216 217 206 206 209 212 184 170 190 203 159 177 187 115 114 193 209 108 13 108 90 70 65 54 41 32 32 24 19 26 47 35
242 302 325 349 17 117 118 126 324 282 303 316 287 244 213 171 133 227 212 211 182 197 181 171 185 184 164 160 180 211 256 33 73 73 259 149 80 79 77 72 52 41 36 26 14 14 22 40 46
276 294 313 331 333 326 219 241 298 268 318 285 277 229 205 142 131 206 188 178 184 188 190 188 183 138 169 167 185 222 10 313 325 342 264 131 75 92 77 66 54 38 34 24 18 25 28 58 42
269 287 300 307 331 307 244 245 247 233 283 287 259 234 191 156 150 201 192 204 195 192 189 185 173 161 169 169 196 172 300 302 296 313 139 190 130 88 70 55 41 27 23 13 4 31 29 41 40
287 327 334 347 302 314 244 201 227 234 237 249 232 215 195 157 159 195 196 197 198 192 195 190 180 179 187 203 210 206 263 342 296 349 127 119 118 85 76 50 33 21 5 351 19 22 20 24 37
300 324 306 325 325 288 213 229 215 232 244 232 212 203 185 160 160 193 204 197 197 189 187 196 203 212 215 213 211 221 253 310 312 225 173 141 108 88 69 49 46 39 44 41 36 26 17 14 40
296 304 316 322 307 269 266 239 203 217 241 216 201 211 198 164 162 183 195 192 186 195 192 202 202 214 226 222 215 216 259 294 335 177 160 137 104 88 63 43 29 5 17 17 7 23 27 16 30
275 281 313 315 325 302 272 229 221 229 218 212 196 208 191 172 172 183 189 186 199 199 209 210 216 221 221 229 219 222 245 283 246 175 141 122 98 88 52 48 46 36 21 5 356 11 9 18 15
223 233 306 303 330 337 271 237 231 212 209 207 194 203 202 195 184 200 206 199 206 224 218 212 210 222 217 225 224 220 245 260 176 156 135 111 98 96 70 57 41 35 40 38 41 26 346 333 352
184 139 257 294 324 331 200 204 231 206 210 200 193 208 215 216 206 210 214 197 199 223 225 212 199 208 208 216 222 223 227 222 179 160 135 112 112 95 76 54 32 23 22 27 23 19 4 356 6
216 221 227 294 323 4 240 220 231 216 210 201 190 206 209 222 220 220 230 218 210 212 220 206 198 209 207 210 224 227 217 192 171 159 135 122 118 136 71 62 39 33 21 21 27 22 23 34 19
231 214 199 240 290 29 108 219 242 232 211 199 190 205 203 214 208 218 239 237 207 196 218 208 207 202 183 196 173 186 187 168 160 162 137 140 151 156 108 76 51 37 24 32 26 29 23 20 49
229 218 213 217 268 237 211 204 215 206 227 209 199 210 207 211 203 205 221 244 211 200 208 209 199 195 181 167 149 146 149 155 172 150 140 158 159 185 136 102 89 45 15 13 18 22 25 45 70
230 217 206 232 211 221 229 217 224 220 201 206 210 206 215 228 232 215 238 237 232 206 197 205 202 194 180 161 169 157 161 173 170 157 146 164 186 197 178 120 117 41 18 5 3 8 26 51 44
209 196 235 190 178 185 198 139 141 186 205 205 223 240 242 244 246 251 251 242 231 221 201 196 200 200 187 178 179 160 168 176 184 170 171 194 190 202 242 242 44 34 9 0 352 358 16 30 61
195 204 219 211 192 183 182 187 173 195 225 226 232 233 230 242 241 246 254 244 225 220 212 203 200 199 202 198 194 191 190 181 184 183 194 203 206 212 238 273 296 316 334 338 341 333 333 325 17
207 208 200 201 196 194 192 187 185 188 208 213 205 217 227 241 255 244 244 263 242 221 213 208 204 197 197 207 200 207 197 197 185 192 199 205 215 224 227 261 299 304 353 314 324 307 327 313 346
198 197 205 200 199 189 192 189 205 202 211 222 200 190 200 224 245 241 233 260 271 231 208 208 213 206 205 200 208 209 211 188 188 195 199 204 217 212 217 257 283 296 324 312 265 260 311 254 320
195 198 200 212 209 182 182 219 253 237 224 228 230 230 205 202 219 230 223 239 274 228 196 198 217 216 207 201 200 208 223 234 203 198 206 205 210 213 224 227 255 277 295 316 254 233 287 227 237
237 223 204 220 216 192 197 229 249 249 220 229 229 245 213 207 214 214 215 232 249 221 203 185 193 201 206 210 210 219 227 230 218 216 202 212 216 221 232 225 245 260 271 294 221 313 196 225 223
257 218 217 179 169 215 210 219 251 243 248 235 229 242 234 213 222 221 210 218 224 237 224 207 195 184 190 194 196 196 204 211 218 217 226 219 227 230 231 225 237 240 249 245 242 192 208 199 191
278 264 231 269 225 239 233 229 239 230 332 227 232 241 253 249 245 244 229 226 220 224 244 222 210 195 192 192 193 200 193 202 210 207 219 228 230 230 239 242 223 230 223 218 207 222 218 191 194
239 247 253 250 228 216 223 288 267 269 231 147 160 209 242 244 246 261 261 243 230 239 235 226 209 207 211 211 201 205 215 219 220 219 222 223 221 226 239 235 230 230 228 229 223 237 229 211 199
269 263 247 241 225 206 171 69 302 185 225 125 110 165 215 221 223 231 250 251 236 213 226 240 223 216 220 221 234 228 219 216 218 219 213 219 221 232 235 234 237 237 240 233 216 231 227 224 227
265 259 247 235 233 218 176 148 98 86 198 121 67 107 96 68 206 183 225 248 242 233 234 227 222 226 244 236 233 237 239 228 223 225 224 229 230 237 235 237 242 240 238 242 233 226 230 227 224
311 243 245 244 236 225 219 209 170 1 115 175 174 56 348 349 344 254 202 206 224 230 237 238 240 239 250 242 240 239 239 239 236 235 235 238 244 243 241 241 240 238 231 234 237 232 231 230 232
239 229 222 234 246 240 242 228 269 234 102 155 182 330 323 297 347 311 273 235 223 236 249 254 260 253 251 251 249 248 247 246 244 241 240 240 241 243 246 249 250 243 239 244 235 232 232 233 236